TimeCST,TemperatureF,Dew PointF,Humidity,Sea Level PressureIn,VisibilityMPH,Wind Direction,Wind SpeedMPH,Gust SpeedMPH,PrecipitationIn,Events,Conditions,WindDirDegrees,DateUTC
12:52 AM,30.9,25.0,79,29.99,10.0,WNW,4.6,-,N/A,,Overcast,290,2013-02-15 06:52:00
1:52 AM,30.9,25.0,79,30.01,10.0,WNW,6.9,-,N/A,,Overcast,300,2013-02-15 07:52:00
2:52 AM,30.9,24.1,76,30.03,10.0,NW,13.8,-,N/A,,Overcast,320,2013-02-15 08:52:00
3:52 AM,28.9,21.9,75,30.05,9.0,NNW,13.8,-,0.00,Snow,Light Snow,330,2013-02-15 09:52:00
4:06 AM,28.4,23.0,80,30.02,9.0,NNW,10.4,-,0.00,Snow,Light Snow,340,2013-02-15 10:06:00
4:52 AM,27.0,21.9,81,30.07,9.0,North,12.7,-,0.00,Snow,Light Snow,360,2013-02-15 10:52:00
5:32 AM,26.6,17.6,69,30.07,9.0,NNW,13.8,24.2,0.00,Snow,Light Snow,340,2013-02-15 11:32:00
5:52 AM,26.1,18.0,71,30.10,9.0,NNW,15.0,-,0.00,Snow,Light Snow,340,2013-02-15 11:52:00
6:52 AM,23.0,16.0,74,30.13,10.0,NNW,13.8,-,0.00,,Scattered Clouds,340,2013-02-15 12:52:00
7:08 AM,23.0,15.8,74,30.11,10.0,NNW,13.8,-,N/A,,Mostly Cloudy,340,2013-02-15 13:08:00
7:37 AM,21.2,12.2,68,30.13,10.0,NNW,15.0,-,N/A,,Scattered Clouds,330,2013-02-15 13:37:00
7:52 AM,21.9,12.9,68,30.17,10.0,NNW,13.8,-,N/A,,Clear,330,2013-02-15 13:52:00
8:52 AM,23.0,10.9,60,30.19,10.0,NNW,12.7,-,N/A,,Clear,340,2013-02-15 14:52:00
9:52 AM,25.0,10.9,55,30.20,10.0,NNW,8.1,-,N/A,,Clear,330,2013-02-15 15:52:00
10:52 AM,27.0,12.0,53,30.20,10.0,North,6.9,-,N/A,,Clear,360,2013-02-15 16:52:00
11:52 AM,28.9,12.9,51,30.19,10.0,NNW,10.4,-,N/A,,Clear,330,2013-02-15 17:52:00
12:52 PM,28.9,12.9,51,30.18,10.0,West,12.7,19.6,N/A,,Clear,280,2013-02-15 18:52:00
1:52 PM,30.9,14.0,50,30.17,10.0,NW,11.5,-,N/A,,Scattered Clouds,310,2013-02-15 19:52:00
2:52 PM,30.0,12.9,49,30.17,10.0,West,10.4,-,N/A,,Clear,270,2013-02-15 20:52:00
3:52 PM,28.9,10.0,45,30.18,10.0,WNW,12.7,-,N/A,,Scattered Clouds,290,2013-02-15 21:52:00
4:52 PM,28.0,12.0,51,30.18,10.0,WNW,9.2,-,N/A,,Overcast,290,2013-02-15 22:52:00
5:52 PM,27.0,12.9,56,30.19,10.0,West,5.8,-,N/A,,Overcast,280,2013-02-15 23:52:00
7:52 PM,25.0,12.0,58,30.19,10.0,NW,12.7,-,N/A,,Overcast,310,2013-02-16 01:52:00
8:52 PM,21.9,10.0,60,30.20,10.0,NW,13.8,-,N/A,,Clear,310,2013-02-16 02:52:00
9:52 PM,21.0,9.0,60,30.20,10.0,NW,12.7,-,N/A,,Clear,310,2013-02-16 03:52:00
10:52 PM,19.9,9.0,62,30.19,10.0,WNW,11.5,-,N/A,,Clear,300,2013-02-16 04:52:00
11:52 PM,19.0,9.0,65,30.19,10.0,NW,10.4,-,N/A,,Clear,320,2013-02-16 05:52:00